• In Latvia
  • List of Countries
  • For 7 days
  • Water Temperature
  • Satellite Maps
  • Weather Map
  • Weather Widgets
  • user-avatar
    Login

    Hourly Weather Djelfa

    Today, 25 May, Thursday

    Time Temperature Precipitation Wind Pressure Humidity
    00:00 +24°C° 0 mm 1 mps 666 mmHg 42%
    01:00 +23°C° 0.2 mm 2 mps 666 mmHg 44%
    02:00 +23°C° 0.2 mm 2 mps 666 mmHg 46%
    03:00 +21°C° 0.2 mm 2 mps 666 mmHg 47%
    04:00 +21°C° 0.2 mm 2 mps 666 mmHg 47%
    05:00 +21°C° 0.2 mm 2 mps 666 mmHg 48%
    06:00 +23°C° 0 mm 2 mps 666 mmHg 46%
    07:00 +24°C° 0.3 mm 2 mps 667 mmHg 42%
    08:00 +26°C° 0.3 mm 3 mps 667 mmHg 37%
    09:00 +27°C° 0.3 mm 4 mps 667 mmHg 32%
    10:00 +28°C° 0 mm 4 mps 667 mmHg 30%
    11:00 +29°C° 0 mm 3 mps 667 mmHg 28%
    12:00 +30°C° 0 mm 3 mps 667 mmHg 25%
    13:00 +30°C° 0 mm 3 mps 667 mmHg 24%
    14:00 +31°C° 0 mm 3 mps 666 mmHg 24%
    15:00 +31°C° 0 mm 2 mps 666 mmHg 23%
    16:00 +30°C° 0.2 mm 3 mps 666 mmHg 26%
    17:00 +29°C° 0.2 mm 4 mps 665 mmHg 28%
    18:00 +28°C° 0.2 mm 5 mps 665 mmHg 31%
    19:00 +27°C° 0.4 mm 5 mps 665 mmHg 37%
    20:00 +26°C° 0.4 mm 5 mps 666 mmHg 42%
    21:00 +23°C° 0.4 mm 5 mps 666 mmHg 48%
    22:00 +23°C° 0.4 mm 5 mps 666 mmHg 51%
    23:00 +22°C° 0.4 mm 4 mps 666 mmHg 55%

    Tomorrow, 26 May, Friday

    Time Temperature Precipitation Wind Pressure Humidity
    00:00 +21°C° 0.4 mm 4 mps 666 mmHg 58%
    01:00 +21°C° 0.2 mm 5 mps 665 mmHg 58%
    02:00 +21°C° 0.2 mm 5 mps 665 mmHg 57%
    03:00 +20°C° 0.2 mm 5 mps 665 mmHg 57%
    04:00 +21°C° 0 mm 4 mps 665 mmHg 54%
    05:00 +21°C° 0 mm 4 mps 665 mmHg 51%
    06:00 +21°C° 0 mm 3 mps 665 mmHg 49%
    07:00 +23°C° 0 mm 4 mps 665 mmHg 42%
    08:00 +26°C° 0 mm 4 mps 666 mmHg 36%
    09:00 +28°C° 0 mm 5 mps 666 mmHg 29%
    10:00 +29°C° 0 mm 5 mps 666 mmHg 27%
    11:00 +32°C° 0 mm 5 mps 666 mmHg 24%
    12:00 +33°C° 0 mm 5 mps 666 mmHg 22%
    13:00 +33°C° 0 mm 4 mps 666 mmHg 21%
    14:00 +34°C° 0 mm 4 mps 665 mmHg 19%
    15:00 +34°C° 0 mm 4 mps 665 mmHg 18%
    16:00 +33°C° 0.1 mm 5 mps 665 mmHg 21%
    17:00 +32°C° 0.1 mm 6 mps 664 mmHg 25%
    18:00 +29°C° 0.1 mm 7 mps 664 mmHg 28%
    19:00 +28°C° 0 mm 6 mps 664 mmHg 32%
    20:00 +27°C° 0 mm 5 mps 665 mmHg 37%
    21:00 +26°C° 0 mm 5 mps 665 mmHg 42%
    22:00 +25°C° 0 mm 5 mps 665 mmHg 44%
    23:00 +23°C° 0 mm 5 mps 665 mmHg 47%

    Day after tomorrow, 27 May, Saturday

    Time Temperature Precipitation Wind Pressure Humidity
    00:00 +23°C° 0 mm 5 mps 665 mmHg 50%
    01:00 +22°C° 0 mm 4 mps 665 mmHg 49%
    02:00 +22°C° 0 mm 4 mps 665 mmHg 49%
    03:00 +22°C° 0 mm 3 mps 665 mmHg 48%
    04:00 +22°C° 0 mm 4 mps 665 mmHg 47%
    05:00 +22°C° 0 mm 4 mps 665 mmHg 46%
    06:00 +23°C° 0 mm 4 mps 665 mmHg 45%
    07:00 +25°C° 0 mm 5 mps 666 mmHg 39%
    08:00 +27°C° 0 mm 5 mps 666 mmHg 33%
    09:00 +29°C° 0 mm 6 mps 667 mmHg 27%
    10:00 +30°C° 0 mm 6 mps 667 mmHg 25%
    11:00 +33°C° 0 mm 6 mps 667 mmHg 22%
    12:00 +34°C° 0 mm 6 mps 667 mmHg 19%
    13:00 +34°C° 0 mm 5 mps 667 mmHg 18%
    14:00 +34°C° 0 mm 5 mps 667 mmHg 17%
    15:00 +35°C° 0 mm 5 mps 667 mmHg 16%
    16:00 +34°C° 0 mm 6 mps 666 mmHg 17%
    17:00 +33°C° 0 mm 6 mps 666 mmHg 19%
    18:00 +33°C° 0 mm 6 mps 666 mmHg 20%
    19:00 +30°C° 0 mm 6 mps 666 mmHg 25%
    20:00 +29°C° 0 mm 6 mps 666 mmHg 29%
    21:00 +27°C° 0 mm 6 mps 666 mmHg 33%
    22:00 +27°C° 0 mm 6 mps 666 mmHg 34%
    23:00 +26°C° 0 mm 6 mps 666 mmHg 36%

    28 May, Sunday

    Time Temperature Precipitation Wind Pressure Humidity
    00:00 +24°C° 0 mm 6 mps 666 mmHg 37%
    01:00 +24°C° 0 mm 6 mps 666 mmHg 38%
    02:00 +23°C° 0 mm 5 mps 666 mmHg 39%
    03:00 +23°C° 0 mm 5 mps 666 mmHg 40%
    04:00 +23°C° 0 mm 5 mps 666 mmHg 40%
    05:00 +23°C° 0 mm 5 mps 666 mmHg 40%
    06:00 +23°C° 0 mm 5 mps 667 mmHg 40%
    07:00 +26°C° 0 mm 5 mps 667 mmHg 36%
    08:00 +27°C° 0 mm 6 mps 668 mmHg 32%
    09:00 +29°C° 0 mm 7 mps 668 mmHg 28%
    10:00 +30°C° 0 mm 7 mps 668 mmHg 26%
    11:00 +32°C° 0 mm 7 mps 668 mmHg 24%
    12:00 +33°C° 0 mm 7 mps 668 mmHg 22%
    13:00 +34°C° 0 mm 6 mps 668 mmHg 22%
    14:00 +34°C° 0 mm 6 mps 667 mmHg 21%
    15:00 +34°C° 0 mm 6 mps 667 mmHg 20%
    16:00 +33°C° 0 mm 6 mps 667 mmHg 21%
    17:00 +33°C° 0 mm 6 mps 666 mmHg 22%
    18:00 +32°C° 0 mm 6 mps 666 mmHg 23%
    19:00 +30°C° 0 mm 7 mps 666 mmHg 26%
    20:00 +29°C° 0 mm 7 mps 667 mmHg 28%
    21:00 +28°C° 0 mm 7 mps 667 mmHg 31%
    22:00 +27°C° 0 mm 6 mps 666 mmHg 33%
    23:00 +26°C° 0 mm 6 mps 666 mmHg 36%

    29 May, Monday

    Time Temperature Precipitation Wind Pressure Humidity
    00:00 +25°C° 0 mm 5 mps 666 mmHg 38%
    01:00 +24°C° 0 mm 6 mps 665 mmHg 40%
    02:00 +23°C° 0 mm 6 mps 665 mmHg 42%
    03:00 +22°C° 0 mm 6 mps 665 mmHg 44%
    04:00 +22°C° 0.2 mm 6 mps 665 mmHg 45%
    05:00 +22°C° 0.2 mm 6 mps 665 mmHg 46%
    06:00 +21°C° 0.2 mm 6 mps 665 mmHg 47%
    07:00 +22°C° 0.2 mm 6 mps 666 mmHg 43%
    08:00 +24°C° 0.2 mm 6 mps 666 mmHg 40%
    09:00 +26°C° 0.2 mm 6 mps 666 mmHg 36%
    10:00 +27°C° 0 mm 5 mps 666 mmHg 33%
    11:00 +28°C° 0 mm 5 mps 666 mmHg 31%
    12:00 +29°C° 0 mm 5 mps 666 mmHg 28%
    13:00 +29°C° 0 mm 5 mps 665 mmHg 27%
    14:00 +30°C° 0 mm 5 mps 665 mmHg 26%
    15:00 +30°C° 0 mm 6 mps 665 mmHg 25%
    16:00 +29°C° 0.1 mm 6 mps 665 mmHg 27%
    17:00 +28°C° 0.1 mm 6 mps 664 mmHg 29%
    18:00 +27°C° 0.1 mm 7 mps 664 mmHg 31%
    19:00 +26°C° 0.4 mm 6 mps 664 mmHg 34%
    20:00 +24°C° 0.4 mm 6 mps 665 mmHg 37%
    21:00 +23°C° 0.4 mm 5 mps 665 mmHg 40%
    22:00 +22°C° 0.2 mm 5 mps 665 mmHg 41%
    23:00 +22°C° 0.2 mm 5 mps 665 mmHg 42%

    30 May, Tuesday

    Time Temperature Precipitation Wind Pressure Humidity
    00:00 +21°C° 0.2 mm 5 mps 664 mmHg 44%
    01:00 +20°C° 0 mm 4 mps 664 mmHg 45%
    02:00 +20°C° 0 mm 4 mps 664 mmHg 46%
    03:00 +19°C° 0 mm 3 mps 663 mmHg 47%
    04:00 +19°C° 0.1 mm 3 mps 664 mmHg 49%
    05:00 +19°C° 0.1 mm 3 mps 664 mmHg 51%
    06:00 +18°C° 0.1 mm 2 mps 664 mmHg 53%
    07:00 +19°C° 0.1 mm 3 mps 664 mmHg 50%
    08:00 +20°C° 0.1 mm 4 mps 665 mmHg 48%
    09:00 +20°C° 0.1 mm 5 mps 665 mmHg 45%
    10:00 +21°C° 0.1 mm 5 mps 665 mmHg 44%
    11:00 +22°C° 0.1 mm 5 mps 665 mmHg 43%
    12:00 +22°C° 0.1 mm 5 mps 665 mmHg 41%
    13:00 +23°C° 0 mm 5 mps 664 mmHg 39%
    14:00 +23°C° 0 mm 5 mps 664 mmHg 37%
    15:00 +24°C° 0 mm 6 mps 664 mmHg 34%
    16:00 +25°C° 0.3 mm 5 mps 664 mmHg 35%
    17:00 +23°C° 0.3 mm 5 mps 664 mmHg 35%
    18:00 +23°C° 0.3 mm 5 mps 664 mmHg 35%
    19:00 +22°C° 0.3 mm 5 mps 664 mmHg 36%
    20:00 +21°C° 0.3 mm 5 mps 664 mmHg 37%
    21:00 +21°C° 0.3 mm 4 mps 665 mmHg 38%
    22:00 +20°C° 0.1 mm 4 mps 664 mmHg 40%
    23:00 +20°C° 0.1 mm 4 mps 664 mmHg 41%
    Show more